[[{"header":{"parameterUnit":"m.s-1","parameterCategory":1,"la1":30.2992,"la2":30.254,"lo1":-89.0895,"lo2":-89.0443,"dy":0.0025,"dx":0.0025,"nx":19,"ny":19,"refTime":"2026-04-23T21:00:00:Z","depth":0,"parameterNumber":2,"parameterNumberName":"U-component_of_WINDS"},"data":[0,0,0,-1.5662,-1.5663,-1.5691,-1.5691,-1.572,-1.572,0,0,0,0,0,0,0,0,0,0,0,-1.565,-1.565,-1.5662,-1.5663,-1.5691,-1.5691,-1.572,-1.572,0,0,0,0,0,0,0,0,0,0,0,-1.565,-1.565,-1.565,-1.5663,-1.5691,-1.5691,-1.572,-1.5701,0,0,0,0,0,0,0,0,0,0,-1.5675,-1.566,-1.565,-1.565,-1.5663,-1.5691,-1.5691,-1.57,-1.5702,-1.5704,0,-1.5705,0,-1.5713,-1.5721,-1.5722,0,0,0,-1.5666,-1.5658,-1.5669,-1.565,-1.5663,-1.569,-1.5679,-1.5701,-1.5704,-1.5707,-1.5706,-1.5707,-1.5713,-1.5722,-1.5722,-1.5723,-1.5723,0,0,-1.5664,-1.5653,-1.5668,-1.567,-1.5666,-1.5678,-1.568,-1.5703,-1.5701,-1.5706,-1.5708,-1.5714,-1.5722,-1.5722,-1.5723,-1.5723,0,0,0,-1.5658,-1.5652,-1.5662,-1.5669,-1.5675,-1.5679,-1.5681,-1.57,-1.5704,-1.5708,-1.5714,-1.5722,-1.5722,-1.5724,-1.5723,-1.5705,0,0,0,-1.5657,-1.5648,-1.5661,-1.5655,-1.5674,-1.5688,-1.5677,-1.5703,-1.5706,-1.5714,-1.5722,-1.5722,-1.5724,-1.5724,-1.5706,-1.5698,0,0,0,-1.5649,-1.5647,-1.565,-1.5654,-1.5666,-1.5688,-1.5693,-1.5703,-1.5709,-1.5722,-1.5722,-1.5724,-1.5724,-1.5707,-1.57,-1.5695,0,0,0,-1.5638,-1.5634,-1.5649,-1.5647,-1.5665,-1.5676,-1.5693,-1.5702,-1.5711,-1.5722,-1.5724,-1.5723,-1.5707,-1.5701,-1.5696,-1.5688,-1.5684,0,0,-1.5627,-1.5632,-1.5632,-1.5646,-1.5651,-1.5673,-1.5675,-1.5694,-1.5706,-1.5717,-1.5717,-1.5706,-1.57,-1.5695,-1.5667,-1.5664,0,0,0,-1.5624,-1.5623,-1.5627,-1.5634,-1.5648,-1.5659,-1.5679,-1.5686,-1.5695,-1.5709,-1.5704,-1.57,-1.5698,-1.5695,-1.5692,-1.569,-1.5722,-1.5722,-1.5722,-1.5591,-1.5606,-1.5606,-1.5623,-1.563,-1.565,-1.5656,-1.5669,-1.5682,-1.5681,-1.5684,-1.5665,-1.5661,-1.5659,-1.5657,-1.5682,-1.5682,-1.5682,-1.5682,-1.5575,-1.5576,-1.5593,-1.5598,-1.5614,-1.5619,-1.5637,-1.5646,-1.5653,-1.5664,-1.5663,-1.5674,-1.5655,-1.5654,-1.568,-1.5681,-1.5681,-1.5681,-1.5681,-1.5555,-1.5558,-1.5566,-1.5577,-1.5584,-1.5602,-1.5607,-1.5621,-1.5635,-1.5633,-1.5638,-1.5638,-1.5639,-1.5634,-1.5634,-1.5634,-1.5634,-1.5634,-1.5634,-1.553,-1.554,-1.5542,-1.5556,-1.5562,-1.5571,-1.559,-1.5596,-1.5607,-1.5617,-1.5617,-1.563,-1.5651,-1.5655,-1.5633,-1.5633,-1.5633,-1.5634,-1.5634,-1.5507,-1.5514,-1.5518,-1.5524,-1.554,-1.5545,-1.5563,-1.5575,-1.5582,-1.5584,-1.5597,-1.561,-1.5617,-1.562,-1.5623,-1.5594,-1.5594,-1.5594,-1.5594,-1.549,-1.5494,-1.5501,-1.5509,-1.5518,-1.5534,-1.5537,-1.5551,-1.5568,-1.5573,-1.5579,-1.5586,-1.5587,-1.5593,-1.5596,-1.56,-1.5565,-1.5565,-1.5565,-1.5476,-1.5482,-1.5482,-1.5497,-1.551,-1.5522,-1.5524,-1.5533,-1.5553,-1.5564,-1.5577,-1.5578,-1.5589,-1.5592,-1.5603,-1.5607,-1.5614,0,0]},{"header":{"parameterUnit":"m.s-1","parameterCategory":1,"la1":30.2992,"la2":30.254,"lo1":-89.0895,"lo2":-89.0443,"dy":0.0025,"dx":0.0025,"nx":19,"ny":19,"refTime":"2026-04-23T21:00:00:Z","depth":0,"parameterNumber":3,"parameterNumberName":"V-component_of_WINDS"},"data":[0,0,0,4.9647,4.9649,4.9712,4.9712,4.9801,4.9802,0,0,0,0,0,0,0,0,0,0,0,4.9635,4.9636,4.9647,4.9649,4.9712,4.9712,4.9801,4.9802,0,0,0,0,0,0,0,0,0,0,0,4.9635,4.9636,4.9637,4.9649,4.9712,4.9712,4.9801,4.975,0,0,0,0,0,0,0,0,0,0,4.9687,4.9683,4.9636,4.9637,4.965,4.9712,4.9712,4.9747,4.9753,4.9776,0,4.9801,0,4.9803,4.9809,4.9809,0,0,0,4.9644,4.9678,4.9689,4.9637,4.965,4.9712,4.9682,4.975,4.9757,4.9784,4.9802,4.9805,4.9804,4.9809,4.981,4.9967,4.9968,0,0,4.964,4.965,4.9685,4.9694,4.9687,4.968,4.9684,4.9754,4.9773,4.9802,4.9807,4.9806,4.981,4.9811,4.9966,4.9967,0,0,0,4.9634,4.9648,4.9657,4.969,4.9701,4.9682,4.9687,4.977,4.9772,4.9808,4.9807,4.981,4.9812,4.9965,4.9967,5.0027,0,0,0,4.9631,4.9644,4.9656,4.9662,4.97,4.9737,4.9702,4.9768,4.9775,4.9806,4.981,4.9813,4.9964,4.9966,5.0023,5.0054,0,0,0,4.9629,4.9643,4.9655,4.9663,4.969,4.9736,4.9742,4.9769,4.9775,4.9809,4.9813,4.9963,4.9966,5.0019,5.0048,5.0099,0,0,0,4.9628,4.9707,4.9656,4.9743,4.969,4.9772,4.9741,4.9802,4.9838,4.9811,4.9964,4.9966,5.0018,5.0044,5.0095,5.0145,5.0167,0,0,4.9732,4.9719,4.9769,4.9726,4.9821,4.9762,4.9864,4.9887,4.988,4.9938,4.9942,5.0024,5.0047,5.0098,5.028,5.0298,0,0,0,4.9806,4.9842,4.9865,4.9901,4.9921,4.994,4.9946,4.9954,5.0003,4.9912,5.0055,5.0069,5.0098,5.0122,5.0136,5.0161,4.9977,4.9977,4.9977,4.9968,4.9956,5.0038,5.0034,5.0068,5.0074,5.01,5.0112,5.0088,5.0122,5.014,5.0252,5.028,5.0291,5.0317,5.0164,5.0164,5.0164,5.0165,5.012,5.0171,5.0138,5.0206,5.0192,5.0248,5.0255,5.0237,5.0287,5.0238,5.0263,5.0213,5.031,5.0333,5.0169,5.0168,5.0168,5.0167,5.0167,5.0227,5.0249,5.0258,5.0308,5.0347,5.0338,5.0388,5.0373,5.0358,5.0383,5.0401,5.04,5.0398,5.0392,5.0392,5.0393,5.0393,5.0393,5.0394,5.0335,5.0343,5.0388,5.0415,5.0436,5.0461,5.0466,5.0485,5.0502,5.0487,5.0487,5.0461,5.0322,5.0288,5.04,5.0399,5.0398,5.0397,5.0397,5.0498,5.0459,5.0528,5.0549,5.0579,5.0619,5.0597,5.0638,5.0651,5.0676,5.0643,5.0543,5.0528,5.0516,5.0488,5.0645,5.0645,5.0645,5.0645,5.059,5.0581,5.0648,5.0682,5.0713,5.07,5.0778,5.0781,5.0778,5.0786,5.076,5.0721,5.071,5.0702,5.0686,5.066,5.0857,5.0857,5.0857,5.069,5.0683,5.0753,5.0751,5.0772,5.0791,5.0863,5.0902,5.089,5.0865,5.0791,5.0782,5.0719,5.0699,5.0675,5.0651,5.0603,0,0]}]]